Yosemite National Park, California, United States (95389)
Lat: 37.54N, Lon: 119.84W
Wx Zone: CAZ093
Local Info
Past Weather Observations for Sunday, April 13, 2014

NOTE: This archive is for the closest National Weather Service station to Yosemite National Park. Information may differ from the station used for current weather conditions.

Time Weather Temperature Dewpoint Humidity Pressure Winds Precip Visibility
23:53
Clear
61°F / 16°C 48°F / 9°C 63% 30.01 in
(1016 mb)
NNE 5.8 mph
(NNE 9 kph)
- 10SM
22:53
Clear
63°F / 17°C 48°F / 9°C 59% 30.01 in
(1016 mb)
W 4.6 mph
(W 7 kph)
- 10SM
21:53
Clear
61°F / 16°C 48°F / 9°C 63% 29.98 in
(1015 mb)
SSW 4.6 mph
(SSW 7 kph)
- 10SM
20:53
Clear
63°F / 17°C 46°F / 8°C 56% 29.98 in
(1015 mb)
SW 8.1 mph
(SW 13 kph)
- 10SM
19:53
Clear
63°F / 17°C 46°F / 8°C 56% 29.95 in
(1014 mb)
Calm - 10SM
18:53
Clear
72°F / 22°C 48°F / 9°C 44% 29.92 in
(1013 mb)
NW 3.5 mph
(NW 6 kph)
- 10SM
17:53
Clear
73°F / 23°C 46°F / 8°C 38% 29.92 in
(1013 mb)
NNW 10.4 mph
(NNW 17 kph)
- 10SM
16:53
Clear
75°F / 24°C 46°F / 8°C 36% 29.92 in
(1013 mb)
NNW 10.4 mph
(NNW 17 kph)
- 10SM
15:53
Clear
79°F / 26°C 52°F / 11°C 39% 29.95 in
(1014 mb)
NW 11.5 mph
(NW 19 kph)
- 10SM
14:53
Clear
79°F / 26°C 52°F / 11°C 39% 29.95 in
(1014 mb)
NNW 9.2 mph
(NNW 15 kph)
- 10SM
13:53
Clear
75°F / 24°C 52°F / 11°C 44% 29.98 in
(1015 mb)
NNW 10.4 mph
(NNW 17 kph)
- 10SM
12:53
Clear
73°F / 23°C 52°F / 11°C 47% 29.98 in
(1015 mb)
N 9.2 mph
(N 15 kph)
- 10SM
11:53
Clear
70°F / 21°C 50°F / 10°C 50% 30.01 in
(1016 mb)
NW 6.9 mph
(NW 11 kph)
- 10SM
10:53
Clear
66°F / 19°C 48°F / 9°C 52% 30.01 in
(1016 mb)
NW 10.4 mph
(NW 17 kph)
- 10SM
09:53
Clear
64°F / 18°C 48°F / 9°C 56% 30.01 in
(1016 mb)
NW 12.7 mph
(NW 20 kph)
- 10SM
08:53
Clear
61°F / 16°C 48°F / 9°C 63% 30.01 in
(1016 mb)
NW 13.8 mph
(NW 22 kph)
- 10SM
07:53
Clear
57°F / 14°C 48°F / 9°C 72% 30.01 in
(1016 mb)
NNW 16.1 mph
(NNW 26 kph)
- 10SM
06:53
Clear
54°F / 12°C 48°F / 9°C 82% 29.98 in
(1015 mb)
NNW 12.7 mph
(NNW 20 kph)
- 9SM
05:53
Clear
52°F / 11°C 46°F / 8°C 82% 29.95 in
(1014 mb)
NW 9.2 mph
(NW 15 kph)
- 7SM
04:53
Clear
52°F / 11°C 46°F / 8°C 82% 29.95 in
(1014 mb)
NW 8.1 mph
(NW 13 kph)
- 8SM
03:53
Clear
52°F / 11°C 46°F / 8°C 82% 29.92 in
(1013 mb)
NW 9.2 mph
(NW 15 kph)
- 8SM
02:53
Clear
52°F / 11°C 46°F / 8°C 82% 29.92 in
(1013 mb)
NW 9.2 mph
(NW 15 kph)
- 9SM
01:53
Clear
54°F / 12°C 46°F / 8°C 77% 29.92 in
(1013 mb)
NW 9.2 mph
(NW 15 kph)
- 10SM
00:53
Clear
55°F / 13°C 48°F / 9°C 77% 29.92 in
(1013 mb)
NW 10.4 mph
(NW 17 kph)
- 10SM
Time Weather Temperature Dewpoint Humidity Pressure Winds Precip Visibility


Weather for websites

WeatherForYou.com, LLC is not responsible for any damages or problems caused by this service. Current weather conditions are obtained from the closest station including government and personal stations which may have varying degrees of accuracy. Weather forecasts are derived from the NOAA NDFD. Like all things, this site belongs to Jesus Christ... He just trusts me to maintain it. If you have any questions or comments email webmaster@weatherforyou.com

Copyright © 2014, WeatherForYou.com LLC. All rights reserved.